Volver al catálogo

DELTA 1 DEB

ActivoSSO
NORAD 10644·DEBRIS·🇺🇸 United States

Lanzado Jul 29, 1976 desde Vandenberg Space Force Base

Loading…

Próximos Pases (próximas 24 horas)

TLE

ActualizadoSource: Space-Track

Época: Sep 14, 2026, 09:10 UTC

1 10644U 76077E   26257.38241841 -.00000083  00000-0 -21243-3 0  9993
2 10644 101.3869 221.5632 0105831 200.0731 315.3236 12.61841654305983

Sigue DELTA 1 DEB en tiempo real con AllMySat

Download on the App Store